This is the latest recevied weather packets stored in our database for station/object N7ZAP. If no packets are shown the sender has not sent any weather packets the latest 10 day(s).
| Time | Temp. | Humidity | Pressure | Rain* | Wind** | Luminosity | Snow |
|---|---|---|---|---|---|---|---|
| 1777434474 | 17.78° C | 11% | 1017.3 hPa | 0 mm | - | - | - |
| 1777434171 | 18.33° C | 10% | 1016.7 hPa | 0 mm | - | - | - |
| 1777433868 | 18.33° C | 10% | 1016.9 hPa | 0 mm | - | - | - |
| 1777433566 | 18.33° C | 10% | 1016.7 hPa | 0 mm | - | - | - |
| 1777433265 | 18.89° C | 10% | 1016.5 hPa | 0 mm | - | - | - |
| 1777432962 | 18.89° C | 11% | 1016.6 hPa | 0 mm | - | - | - |
| 1777432661 | 18.89° C | 11% | 1016.1 hPa | 0 mm | - | - | - |
| 1777432359 | 19.44° C | 10% | 1016.3 hPa | 0 mm | - | - | - |
| 1777432058 | 19.44° C | 10% | 1015.9 hPa | 0 mm | - | - | - |
| 1777431754 | 19.44° C | 10% | 1016.2 hPa | 0 mm | - | - | - |
| 1777431450 | 20° C | 10% | 1015.9 hPa | 0 mm | - | - | - |
| 1777431146 | 20° C | 9% | 1015.8 hPa | 0 mm | - | - | - |
| 1777430842 | 20.56° C | 10% | 1015.8 hPa | 0 mm | - | - | - |
| 1777430539 | 20.56° C | 10% | 1015.6 hPa | 0 mm | - | - | - |
| 1777430234 | 21.11° C | 10% | 1015.6 hPa | 0 mm | - | - | - |
| 1777429929 | 21.67° C | 10% | 1015.4 hPa | 0 mm | - | - | - |
| 1777429627 | 22.22° C | 9% | 1015.3 hPa | 0 mm | - | - | - |
| 1777429323 | 22.22° C | 9% | 1015.4 hPa | 0 mm | - | - | - |
| 1777429017 | 21.67° C | 8% | 1015.2 hPa | 0 mm | - | - | - |
| 1777428715 | 21.67° C | 9% | 1014.9 hPa | 0 mm | - | - | - |
| 1777428410 | 22.22° C | 12% | 1014.9 hPa | 0 mm | - | - | - |
| 1777428106 | 22.22° C | 10% | 1014.8 hPa | 0 mm | - | - | - |
| 1777427802 | 21.67° C | 12% | 1014.9 hPa | 0 mm | - | - | - |
| 1777427499 | 22.22° C | 15% | 1014.9 hPa | 0 mm | - | - | - |
| 1777427194 | 22.78° C | 14% | 1014.5 hPa | 0 mm | - | - | - |
* Rain latest hour (hover to see other rain measurements)
** Current wind speed in m/s (hover to see current wind gust speed)